2023/05/05 00:00:00,14.4,16.8
2023/05/05 00:10:00,14.3,16.7
2023/05/05 00:20:00,14.3,16.8
2023/05/05 00:30:00,14.7,16.7
2023/05/05 00:40:00,14.9,15.8
2023/05/05 00:50:00,15.1,15.7
2023/05/05 01:00:00,15.2,16.3
2023/05/05 01:10:00,15.1,15.6
2023/05/05 01:20:00,15.1,16.2
2023/05/05 01:30:00,15.1,16.3
2023/05/05 01:40:00,14.5,16.2
2023/05/05 01:50:00,15.2,16.5
2023/05/05 02:00:00,15.0,16.3
2023/05/05 02:10:00,15.0,16.0
2023/05/05 02:20:00,14.5,16.3
2023/05/05 02:30:00,15.0,16.3
2023/05/05 02:40:00,15.3,16.4
2023/05/05 02:50:00,15.2,16.2
2023/05/05 03:00:00,15.1,16.2
2023/05/05 03:10:00,15.2,16.0
2023/05/05 03:20:00,15.2,16.3
2023/05/05 03:30:00,14.8,16.1
2023/05/05 03:40:00,14.5,16.1
2023/05/05 03:50:00,15.1,16.2
2023/05/05 04:00:00,15.0,16.1
2023/05/05 04:10:00,14.8,16.2
2023/05/05 04:20:00,15.2,16.2
2023/05/05 04:30:00,15.4,16.1
2023/05/05 04:40:00,15.3,16.1
2023/05/05 04:50:00,14.9,16.1
2023/05/05 05:00:00,15.3,16.0
2023/05/05 05:10:00,15.4,16.2
2023/05/05 05:20:00,15.4,16.0
2023/05/05 05:30:00,15.1,16.1
2023/05/05 05:40:00,15.2,16.2
2023/05/05 05:50:00,15.3,16.4
2023/05/05 06:00:00,12.3,16.6
2023/05/05 06:10:00,12.3,16.6
2023/05/05 06:20:00,13.5,16.8
2023/05/05 06:30:00,14.0,16.8
2023/05/05 06:40:00,10.6,16.9
2023/05/05 06:50:00,10.0,17.1
2023/05/05 07:00:00, 7.0,17.4
2023/05/05 07:10:00, 8.4,17.4
2023/05/05 07:20:00, 8.8,17.5
2023/05/05 07:30:00, 1.5,17.5
2023/05/05 07:40:00, 2.6,17.7
2023/05/05 07:50:00, 3.4,17.5
2023/05/05 08:00:00, 3.3,17.8
2023/05/05 08:10:00, 3.5,18.0
2023/05/05 08:20:00, 2.0,17.8
2023/05/05 08:30:00, 3.3,18.5
2023/05/05 08:40:00, 4.1,18.9
2023/05/05 08:50:00, 5.9,19.3
2023/05/05 09:00:00, 5.0,19.3
2023/05/05 09:10:00, 2.4,19.6
2023/05/05 09:20:00, 6.2,19.9
2023/05/05 09:30:00, 5.1,20.4
2023/05/05 09:40:00, 3.0,20.9
2023/05/05 09:50:00, 1.5,20.8
2023/05/05 10:00:00, 3.4,21.2
2023/05/05 10:10:00, 2.0,21.5
2023/05/05 10:20:00, 0.0,21.6
2023/05/05 10:30:00, 0.1,21.6
2023/05/05 10:40:00, 0.5,21.4
2023/05/05 10:50:00, 0.3,21.0
2023/05/05 11:00:00, 1.3,21.5
2023/05/05 11:10:00, 0.5,21.7
2023/05/05 11:20:00, 0.4,21.5
2023/05/05 11:30:00, 0.3,21.5
2023/05/05 11:40:00, 0.5,21.9
2023/05/05 11:50:00, 0.3,21.9
2023/05/05 12:00:00, 0.3,21.1
2023/05/05 12:10:00, 0.4,22.2
2023/05/05 12:20:00, 0.6,21.9
2023/05/05 12:30:00, 0.7,22.2
2023/05/05 12:40:00, 0.9,21.9
2023/05/05 12:50:00, 1.7,21.9
2023/05/05 13:00:00, 1.9,23.0
2023/05/05 13:10:00, 2.5,22.7
2023/05/05 13:20:00, 1.4,22.7
2023/05/05 13:30:00, 1.3,23.9
2023/05/05 13:40:00, 1.5,24.0
2023/05/05 13:50:00, 1.2,23.7
2023/05/05 14:00:00, 1.4,23.7
2023/05/05 14:10:00, 1.2,24.4
2023/05/05 14:20:00, 0.9,24.4
2023/05/05 14:30:00, 0.6,25.8
2023/05/05 14:40:00, 0.6,24.3
2023/05/05 14:50:00, 0.9,24.2
2023/05/05 15:00:00, 0.3,25.6
2023/05/05 15:10:00, 0.9,24.5
2023/05/05 15:20:00, 1.8,24.1
2023/05/05 15:30:00, 2.4,23.7
2023/05/05 15:40:00, 1.9,23.7
2023/05/05 15:50:00, 1.6,23.4
2023/05/05 16:00:00, 1.1,23.6
2023/05/05 16:10:00, 0.5,24.4
2023/05/05 16:20:00, 0.8,24.6
2023/05/05 16:30:00, 0.6,24.3
2023/05/05 16:40:00, 1.5,23.2
2023/05/05 16:50:00, 1.1,22.9
2023/05/05 17:00:00, 1.0,22.6
2023/05/05 17:10:00, 0.9,21.9
2023/05/05 17:20:00, 0.8,21.8
2023/05/05 17:30:00, 0.9,21.9
2023/05/05 17:40:00, 0.9,21.5
2023/05/05 17:50:00, 0.6,21.3
2023/05/05 18:00:00, 0.5,21.5
2023/05/05 18:10:00, 0.5,21.3
2023/05/05 18:20:00, 0.5,21.2
2023/05/05 18:30:00, 0.6,21.1
2023/05/05 18:40:00, 0.6,20.9
2023/05/05 18:50:00, 0.6,20.6
2023/05/05 19:00:00, 0.6,20.4
2023/05/05 19:10:00, 0.8,20.4
2023/05/05 19:20:00, 0.7,20.4
2023/05/05 19:30:00, 0.6,20.2
2023/05/05 19:40:00, 0.6,20.0
2023/05/05 19:50:00, 0.6,20.0
2023/05/05 20:00:00, 0.6,20.1
2023/05/05 20:10:00, 0.5,19.8
2023/05/05 20:20:00, 0.5,19.8
2023/05/05 20:30:00, 0.5,19.6
2023/05/05 20:40:00, 0.4,19.5
2023/05/05 20:50:00, 0.5,19.5
2023/05/05 21:00:00, 0.6,19.3
2023/05/05 21:10:00, 0.6,19.4
2023/05/05 21:20:00, 0.6,19.3
2023/05/05 21:30:00, 0.6,19.2
2023/05/05 21:40:00, 0.6,19.3
2023/05/05 21:50:00, 0.5,19.2
2023/05/05 22:00:00, 0.4,19.2
2023/05/05 22:10:00, 0.4,18.9
2023/05/05 22:20:00, 0.6,19.1
2023/05/05 22:30:00, 0.5,19.1
2023/05/05 22:40:00, 0.4,19.1
2023/05/05 22:50:00, 5.4,19.0
2023/05/05 23:00:00, 0.6,18.8
2023/05/05 23:10:00, 1.3,19.1
2023/05/05 23:20:00, 0.5,18.8
2023/05/05 23:30:00, 0.5,18.7
2023/05/05 23:40:00, 0.5,19.0
2023/05/05 23:50:00, 0.4,18.6
